[[{"header":{"parameterUnit":"m.s-1","parameterCategory":1,"la1":30.2991,"la2":30.254,"lo1":-89.0895,"lo2":-89.0444,"dy":0.0017,"dx":0.0017,"nx":28,"ny":28,"refTime":"2024-04-21T09:00:00:Z","depth":0,"parameterNumber":2,"parameterNumberName":"U-component_of_WINDS"},"data":[0,0,0,0,0,0,0,0,0,0,0,0,0,0,0,0,0,0,0,0,0,0,0,0,0,0,0,0,0,0,0,0,0,0,0,0,0,0,0,0,0,0,0,0,0,0,0,0,0,0,0,0,0,0,0,0,0,0,-3.2483,-3.2484,0,-3.2583,-3.2584,-3.2585,-3.2544,-3.2542,-3.254,-3.2538,-3.2637,-3.2642,-3.2647,0,0,0,0,0,0,0,0,0,0,0,0,0,-3.2255,-3.2259,-3.2483,-3.2485,-3.2486,-3.2583,-3.2584,-3.2585,-3.2545,-3.2542,-3.2539,-3.2536,-3.2635,-3.2641,-3.2647,0,0,0,0,0,0,0,0,0,0,0,0,0,-3.2354,-3.2261,-3.2483,-3.2477,-3.2478,-3.2582,-3.2584,-3.2586,-3.2546,-3.2542,-3.2538,-3.2535,-3.2634,-3.2641,-3.2648,-3.2763,0,0,-3.267,-3.2673,0,0,0,0,0,0,0,0,-3.2349,-3.2363,-3.2477,-3.2478,-3.2479,-3.2548,-3.254,-3.2645,-3.2546,-3.252,-3.2537,-3.2533,-3.261,-3.2619,-3.2645,-3.2768,-3.2772,-3.2671,-3.2675,-3.2678,-3.268,0,0,0,0,0,0,0,-3.2342,-3.2358,-3.2523,-3.2479,-3.248,-3.2469,-3.2479,-3.256,-3.2583,-3.2522,-3.2519,-3.2532,-3.261,-3.2638,-3.2647,-3.2774,-3.267,-3.2677,-3.2681,-3.2684,-3.2993,-3.2997,0,0,0,0,0,0,-3.2335,-3.2353,-3.2519,-3.2526,-3.2404,-3.2476,-3.2487,-3.2529,-3.2582,-3.2587,-3.2534,-3.2529,-3.2628,-3.2639,-3.2651,-3.2787,-3.2678,-3.2685,-3.2689,-3.2989,-3.2994,-3.2998,0,0,0,0,0,0,-3.233,-3.235,-3.2515,-3.2438,-3.2459,-3.2483,-3.2531,-3.2533,-3.2561,-3.2592,-3.2596,-3.256,-3.2625,-3.264,-3.2735,-3.279,-3.2688,-3.2695,-3.2985,-3.2991,-3.2996,-3.3062,0,0,0,0,0,0,-3.2324,-3.2349,-3.2394,-3.244,-3.2463,-3.2599,-3.2534,-3.2537,-3.2574,-3.2569,-3.2617,-3.2621,-3.2624,-3.2724,-3.2742,-3.2798,-3.27,-3.298,-3.2987,-3.2994,-3.3055,-3.3069,-3.3081,0,0,0,0,0,-3.2316,-3.2409,-3.2396,-3.2417,-3.252,-3.2603,-3.2616,-3.2618,-3.2579,-3.2623,-3.2643,-3.262,-3.2782,-3.2735,-3.2754,-3.2813,-3.2976,-3.2985,-3.2994,-3.3049,-3.3066,-3.3081,0,0,0,0,0,0,-3.2368,-3.2414,-3.2401,-3.2512,-3.2554,-3.2596,-3.2652,-3.2636,-3.2689,-3.2682,-3.2681,-3.2692,-3.2789,-3.2811,-3.2758,-3.2926,-3.2873,-3.2886,-3.2908,-3.2925,-3.2938,-3.2929,-3.2707,0,0,0,0,0,-3.2392,-3.2457,-3.2494,-3.2587,-3.2609,-3.2627,-3.2663,-3.2661,-3.2704,-3.2721,-3.2748,-3.2789,-3.2849,-3.2889,-3.2946,-3.3059,-3.3067,-3.3108,-3.3122,-3.3132,-3.3143,-3.3201,-3.3219,-3.3026,-3.3026,-3.3026,0,0,-3.2443,-3.2477,-3.2517,-3.2599,-3.2631,-3.2695,-3.2642,-3.2714,-3.2761,-3.2732,-3.2822,-3.2843,-3.2889,-3.2993,-3.304,-3.3014,-3.3198,-3.3144,-3.3152,-3.3156,-3.3212,-3.323,-3.3246,-3.3032,-3.3031,-3.303,0,0,-3.2568,-3.2601,-3.2681,-3.2715,-3.2764,-3.2775,-3.2795,-3.2839,-3.2852,-3.2943,-3.2921,-3.2978,-3.3082,-3.3115,-3.3146,-3.3283,-3.3262,-3.3301,-3.337,-3.3426,-3.3442,-3.3455,-3.3501,-3.3518,-3.3312,-3.3312,-3.3313,0,-3.2624,-3.2722,-3.2725,-3.2797,-3.2833,-3.281,-3.289,-3.2922,-3.2987,-3.3012,-3.2982,-3.3111,-3.3141,-3.3251,-3.3284,-3.3311,-3.3331,-3.3295,-3.344,-3.3453,-3.3465,-3.3509,-3.3527,-3.3317,-3.3316,-3.3316,-3.3315,0,-3.2788,-3.2856,-3.2915,-3.2978,-3.3021,-3.3097,-3.3109,-3.3152,-3.3146,-3.316,-3.3252,-3.3287,-3.335,-3.3376,-3.3372,-3.3485,-3.3467,-3.3439,-3.3385,-3.3488,-3.3529,-3.3546,-3.3323,-3.3321,-3.332,-3.3319,0,0,-3.2947,-3.301,-3.3032,-3.3059,-3.3112,-3.3164,-3.3239,-3.33,-3.3335,-3.3382,-3.3442,-3.3531,-3.3505,-3.3539,-3.3539,-3.3589,-3.3691,-3.3554,-3.3555,-3.3576,-3.3815,-3.3833,-3.3853,-3.3679,-3.3683,-3.3685,-3.381,0,-3.3073,-3.3204,-3.3208,-3.3327,-3.3389,-3.3368,-3.3433,-3.3471,-3.3486,-3.354,-3.3556,-3.3618,-3.358,-3.3601,-3.365,-3.3669,-3.3739,-3.366,-3.3733,-3.3736,-3.3719,-3.3875,-3.3895,-3.401,-3.3826,-3.3829,-3.3831,0,-3.3238,-3.3289,-3.3414,-3.3456,-3.3482,-3.354,-3.3596,-3.3649,-3.3691,-3.3698,-3.3737,-3.3728,-3.3803,-3.3749,-3.385,-3.3796,-3.3827,-3.384,-3.3845,-3.3849,-3.3787,-3.388,-3.4048,-3.4064,-3.3857,-3.3855,-3.3853,0,-3.3338,-3.3438,-3.3525,-3.355,-3.3602,-3.3642,-3.3666,-3.3705,-3.3741,-3.379,-3.3813,-3.3871,-3.3901,-3.3945,-3.3951,-3.3912,-3.4052,-3.3999,-3.4058,-3.4058,-3.4086,-3.4083,-3.4257,-3.4111,-3.4111,-3.411,-3.411,0,-3.3477,-3.3553,-3.357,-3.3623,-3.3708,-3.3711,-3.3795,-3.3815,-3.385,-3.3906,-3.3892,-3.3945,-3.3951,-3.4005,-3.4011,-3.4092,-3.4107,-3.4113,-3.4113,-3.4113,-3.4111,-3.413,-3.4121,-3.4115,-3.4114,-3.4113,-3.4112,0,-3.3601,-3.3616,-3.3709,-3.375,-3.3762,-3.3823,-3.3857,-3.3908,-3.3922,-3.3992,-3.4009,-3.403,-3.4093,-3.4104,-3.4178,-3.4182,-3.4278,-3.4272,-3.4263,-3.4261,-3.4319,-3.4312,-3.4508,-3.4533,-3.4374,-3.4375,-3.4376,0,-3.3687,-3.3746,-3.3793,-3.383,-3.3855,-3.3914,-3.3951,-3.3957,-3.3995,-3.4048,-3.4091,-3.4152,-3.4201,-3.4302,-3.4323,-3.4379,-3.4372,-3.4437,-3.438,-3.4377,-3.4369,-3.4364,-3.4369,-3.4447,-3.4449,-3.445,-3.4451,0,-3.3838,-3.3842,-3.3895,-3.3952,-3.3996,-3.4041,-3.4083,-3.4113,-3.4124,-3.4168,-3.4232,-3.427,-3.4345,-3.4405,-3.4461,-3.4483,-3.4468,-3.4469,-3.4485,-3.4484,-3.4475,-3.4477,-3.429,-3.4464,-3.4463,-3.4462,-3.4461,-3.4461,-3.3943,-3.3993,-3.4034,-3.4094,-3.4126,-3.4165,-3.4214,-3.4234,-3.4287,-3.4349,-3.4349,-3.4418,-3.4458,-3.4531,-3.4558,-3.4611,-3.459,-3.4614,-3.4619,-3.4624,-3.4628,-3.447,-3.4622,-3.4621,-3.4621,-3.4621,-3.462,0,-3.409,-3.4115,-3.4171,-3.4229,-3.4276,-3.426,-3.4305,-3.4345,-3.4406,-3.4445,-3.4493,-3.4565,-3.4623,-3.4649,-3.4706,-3.4743,-3.4738,-3.4758,-3.4753,-3.4758,-3.4645,-3.4624,-3.4761,-3.4761,-3.4761,-3.4761,-3.4761,-3.4761,-3.4172,-3.4254,-3.4263,-3.4361,-3.4385,-3.4453,-3.448,-3.4516,-3.4546,-3.4627,-3.4676,-3.4693,-3.4726,-3.4785,-3.4837,-3.4843,-3.4863,-3.4885,-3.4888,-3.4781,-3.4767,-3.4753,-3.4733,-3.4891,-3.4891,-3.4996,-3.4997,-3.4998]},{"header":{"parameterUnit":"m.s-1","parameterCategory":1,"la1":30.2991,"la2":30.254,"lo1":-89.0895,"lo2":-89.0444,"dy":0.0017,"dx":0.0017,"nx":28,"ny":28,"refTime":"2024-04-21T09:00:00:Z","depth":0,"parameterNumber":3,"parameterNumberName":"V-component_of_WINDS"},"data":[0,0,0,0,0,0,0,0,0,0,0,0,0,0,0,0,0,0,0,0,0,0,0,0,0,0,0,0,0,0,0,0,0,0,0,0,0,0,0,0,0,0,0,0,0,0,0,0,0,0,0,0,0,0,0,0,0,0,-1.0111,-1.0111,0,-1.013,-1.013,-1.013,-1.014,-1.014,-1.014,-1.014,-1.0159,-1.016,-1.016,0,0,0,0,0,0,0,0,0,0,0,0,0,-1.0083,-1.0084,-1.0111,-1.0111,-1.0112,-1.013,-1.013,-1.013,-1.014,-1.014,-1.014,-1.014,-1.0159,-1.016,-1.016,0,0,0,0,0,0,0,0,0,0,0,0,0,-1.0098,-1.0084,-1.0111,-1.0118,-1.0119,-1.013,-1.013,-1.013,-1.014,-1.014,-1.014,-1.014,-1.0159,-1.016,-1.0161,-1.0165,0,0,-1.0163,-1.0163,0,0,0,0,0,0,0,0,-1.0097,-1.0099,-1.0117,-1.0118,-1.0119,-1.0132,-1.0127,-1.0142,-1.014,-1.0132,-1.014,-1.014,-1.015,-1.0152,-1.0155,-1.0166,-1.0167,-1.0163,-1.0163,-1.0164,-1.0164,0,0,0,0,0,0,0,-1.0096,-1.0098,-1.0118,-1.0117,-1.0118,-1.0121,-1.0123,-1.013,-1.0141,-1.0133,-1.0133,-1.0135,-1.0151,-1.0155,-1.0156,-1.0167,-1.0163,-1.0164,-1.0164,-1.0164,-1.0181,-1.0181,0,0,0,0,0,0,-1.0094,-1.0097,-1.0118,-1.0119,-1.0108,-1.0121,-1.0124,-1.0128,-1.0141,-1.0143,-1.0135,-1.0136,-1.0153,-1.0155,-1.0157,-1.0162,-1.0164,-1.0164,-1.0165,-1.0181,-1.0181,-1.0181,0,0,0,0,0,0,-1.0093,-1.0096,-1.0117,-1.0108,-1.0111,-1.0122,-1.0127,-1.0128,-1.0132,-1.0143,-1.0145,-1.0137,-1.0153,-1.0156,-1.0163,-1.0163,-1.0165,-1.0166,-1.0181,-1.0181,-1.0181,-1.0173,0,0,0,0,0,0,-1.0093,-1.0095,-1.0097,-1.0108,-1.0112,-1.0123,-1.0127,-1.0129,-1.0133,-1.0134,-1.0145,-1.0147,-1.0154,-1.0161,-1.0163,-1.0164,-1.0166,-1.0181,-1.0181,-1.0181,-1.0174,-1.0173,-1.0172,0,0,0,0,0,-1.0092,-1.0095,-1.0098,-1.01,-1.0114,-1.0123,-1.0125,-1.0132,-1.0133,-1.0135,-1.0142,-1.0147,-1.0162,-1.0162,-1.0164,-1.0165,-1.0181,-1.0181,-1.0181,-1.0174,-1.0173,-1.0172,0,0,0,0,0,0,-1.0084,-1.0097,-1.01,-1.0107,-1.0114,-1.0124,-1.0127,-1.0131,-1.0138,-1.0139,-1.0147,-1.015,-1.0156,-1.0161,-1.016,-1.017,-1.0172,-1.0173,-1.0166,-1.0165,-1.0165,-1.0163,-1.0167,0,0,0,0,0,-1.0084,-1.0089,-1.01,-1.0105,-1.0108,-1.0117,-1.0121,-1.0126,-1.0133,-1.0136,-1.0144,-1.0151,-1.0157,-1.0162,-1.0168,-1.0174,-1.0176,-1.0176,-1.0175,-1.0175,-1.0175,-1.0178,-1.0177,-1.0181,-1.0181,-1.0181,0,0,-1.0082,-1.0089,-1.0093,-1.0104,-1.011,-1.0115,-1.0119,-1.0125,-1.013,-1.0138,-1.0144,-1.015,-1.0158,-1.0164,-1.0168,-1.0169,-1.0174,-1.0175,-1.0174,-1.0175,-1.0177,-1.0177,-1.0177,-1.0181,-1.0181,-1.0181,0,0,-1.0082,-1.0089,-1.0093,-1.0099,-1.0107,-1.0113,-1.0114,-1.0124,-1.0128,-1.0134,-1.014,-1.0145,-1.0156,-1.0162,-1.0166,-1.0167,-1.0171,-1.0169,-1.0166,-1.0168,-1.0168,-1.0168,-1.0168,-1.0167,-1.0169,-1.0169,-1.0169,0,-1.008,-1.0088,-1.0095,-1.01,-1.0105,-1.0111,-1.0116,-1.0121,-1.0131,-1.0134,-1.0135,-1.0149,-1.0155,-1.0162,-1.0162,-1.0166,-1.0167,-1.0168,-1.0168,-1.0167,-1.0167,-1.0167,-1.0167,-1.0168,-1.0169,-1.0169,-1.0169,0,-1.0084,-1.009,-1.0092,-1.0101,-1.0106,-1.0111,-1.0118,-1.0122,-1.0126,-1.0131,-1.0138,-1.0145,-1.0153,-1.0155,-1.0159,-1.0162,-1.0163,-1.0166,-1.0169,-1.0166,-1.0166,-1.0166,-1.0168,-1.0168,-1.0168,-1.0168,0,0,-1.0081,-1.0093,-1.0094,-1.0098,-1.0107,-1.0111,-1.0116,-1.0123,-1.0126,-1.0133,-1.0136,-1.0145,-1.0147,-1.0152,-1.0157,-1.0159,-1.0158,-1.0162,-1.0162,-1.016,-1.0161,-1.0159,-1.0159,-1.0161,-1.0161,-1.0161,-1.016,0,-1.0082,-1.0091,-1.0097,-1.0103,-1.0108,-1.0114,-1.0118,-1.0124,-1.0128,-1.0133,-1.0138,-1.0144,-1.0147,-1.015,-1.0152,-1.0158,-1.0158,-1.0158,-1.0164,-1.0165,-1.0162,-1.0159,-1.0157,-1.0156,-1.016,-1.016,-1.016,0,-1.0085,-1.0091,-1.0097,-1.0105,-1.0107,-1.0111,-1.0117,-1.0122,-1.0128,-1.0131,-1.0136,-1.0141,-1.0145,-1.0147,-1.0154,-1.0153,-1.0156,-1.0159,-1.0159,-1.016,-1.0162,-1.0159,-1.0156,-1.0155,-1.016,-1.016,-1.016,0,-1.0082,-1.0091,-1.0096,-1.0099,-1.0108,-1.011,-1.0114,-1.0121,-1.0124,-1.013,-1.0132,-1.0138,-1.0142,-1.0146,-1.0152,-1.0153,-1.0157,-1.016,-1.016,-1.016,-1.0161,-1.0161,-1.0157,-1.0163,-1.0163,-1.0163,-1.0163,0,-1.0083,-1.0086,-1.0095,-1.0098,-1.0102,-1.0108,-1.0112,-1.0116,-1.0121,-1.0125,-1.013,-1.0134,-1.0141,-1.0146,-1.015,-1.0154,-1.0156,-1.0158,-1.016,-1.0158,-1.0158,-1.016,-1.016,-1.0163,-1.0163,-1.0163,-1.0163,0,-1.008,-1.0086,-1.0091,-1.0099,-1.0101,-1.0103,-1.011,-1.0113,-1.0117,-1.0122,-1.0123,-1.013,-1.0135,-1.0142,-1.0149,-1.0152,-1.0155,-1.0157,-1.0153,-1.0154,-1.0153,-1.0153,-1.0151,-1.0151,-1.0157,-1.0157,-1.0157,0,-1.008,-1.0083,-1.0091,-1.0093,-1.0097,-1.0101,-1.0104,-1.011,-1.0113,-1.012,-1.0122,-1.0127,-1.0132,-1.014,-1.0145,-1.0151,-1.0153,-1.0152,-1.0154,-1.0151,-1.0152,-1.0152,-1.0152,-1.0151,-1.0151,-1.0151,-1.0151,0,-1.008,-1.0082,-1.0086,-1.0091,-1.0095,-1.0099,-1.0104,-1.0106,-1.0113,-1.0116,-1.0121,-1.0124,-1.0131,-1.0136,-1.0141,-1.0145,-1.0149,-1.015,-1.015,-1.0149,-1.0146,-1.0147,-1.0152,-1.015,-1.015,-1.015,-1.015,-1.015,-1.0078,-1.0081,-1.0086,-1.009,-1.0094,-1.0098,-1.0101,-1.0105,-1.0109,-1.0115,-1.0118,-1.0123,-1.0128,-1.0136,-1.0139,-1.0143,-1.0144,-1.0145,-1.0145,-1.0145,-1.0144,-1.0145,-1.0144,-1.0144,-1.0144,-1.0144,-1.0144,0,-1.0078,-1.0081,-1.0085,-1.0091,-1.0094,-1.0097,-1.0102,-1.0104,-1.0108,-1.0112,-1.0116,-1.0121,-1.0126,-1.0132,-1.0136,-1.0138,-1.014,-1.0139,-1.0139,-1.014,-1.0143,-1.0142,-1.0138,-1.0138,-1.0138,-1.0138,-1.0138,-1.0138,-1.0078,-1.0082,-1.0084,-1.009,-1.0093,-1.0097,-1.01,-1.0103,-1.0107,-1.0112,-1.0115,-1.0119,-1.0124,-1.0129,-1.0133,-1.0134,-1.0136,-1.0134,-1.0136,-1.0139,-1.014,-1.014,-1.014,-1.0135,-1.0135,-1.0133,-1.0133,-1.0133]}]]